[[{"header":{"parameterUnit":"m.s-1","parameterCategory":1,"la1":30.2991,"la2":30.254,"lo1":-89.0895,"lo2":-89.0444,"dy":0.0017,"dx":0.0017,"nx":28,"ny":28,"refTime":"2025-04-26T09:00:00:Z","depth":0,"parameterNumber":2,"parameterNumberName":"U-component_of_WINDS"},"data":[0,0,0,0,0,0,0,0,0,0,0,0,0,0,0,0,0,0,0,0,0,0,0,0,0,0,0,0,0,0,0,0,0,0,0,0,0,0,0,0,0,0,0,0,0,0,0,0,0,0,0,0,0,0,0,0,0,0,0.2719,0.2719,0,0.2762,0.2763,0.2763,0.275,0.2749,0.2748,0.2747,0.2795,0.2797,0.2799,0,0,0,0,0,0,0,0,0,0,0,0,0,0.2627,0.2628,0.2719,0.2719,0.272,0.2762,0.2763,0.2763,0.275,0.2749,0.2748,0.2746,0.2794,0.2797,0.28,0,0,0,0,0,0,0,0,0,0,0,0,0,0.2668,0.2629,0.2718,0.2718,0.2718,0.2762,0.2763,0.2763,0.275,0.2749,0.2747,0.2746,0.2794,0.2797,0.28,0.2848,0,0,0.281,0.2811,0,0,0,0,0,0,0,0,0.2666,0.2672,0.2717,0.2718,0.2719,0.2749,0.2748,0.2792,0.275,0.2738,0.2747,0.2745,0.2781,0.2785,0.2797,0.285,0.2852,0.281,0.2812,0.2813,0.2814,0,0,0,0,0,0,0,0.2663,0.267,0.2736,0.2718,0.2719,0.2716,0.2721,0.2756,0.2767,0.2739,0.2738,0.2743,0.2781,0.2794,0.2798,0.2853,0.281,0.2813,0.2815,0.2816,0.2947,0.2949,0,0,0,0,0,0,0.2659,0.2667,0.2734,0.2737,0.2688,0.2719,0.2724,0.2741,0.2767,0.2769,0.2744,0.2743,0.2789,0.2794,0.2799,0.2857,0.2813,0.2816,0.2818,0.2946,0.2948,0.2949,0,0,0,0,0,0,0.2657,0.2665,0.2733,0.2702,0.271,0.2722,0.2741,0.2742,0.2755,0.2771,0.2773,0.2755,0.2788,0.2795,0.2835,0.2858,0.2818,0.2821,0.2944,0.2946,0.2948,0.2972,0,0,0,0,0,0,0.2655,0.2665,0.2682,0.2702,0.2712,0.2767,0.2742,0.2744,0.276,0.2758,0.2781,0.2784,0.2787,0.2831,0.2839,0.2862,0.2823,0.2942,0.2945,0.2948,0.297,0.2975,0.298,0,0,0,0,0,0.2651,0.2688,0.2683,0.2692,0.2734,0.2769,0.2774,0.2777,0.2762,0.278,0.279,0.2783,0.2854,0.2835,0.2844,0.2869,0.2941,0.2944,0.2948,0.2967,0.2974,0.298,0,0,0,0,0,0,0.2672,0.2691,0.2686,0.273,0.2748,0.2766,0.2789,0.2784,0.2807,0.2805,0.2808,0.2813,0.2855,0.2866,0.2844,0.2916,0.2895,0.2901,0.2907,0.2914,0.2919,0.2916,0.2826,0,0,0,0,0,0.2682,0.2707,0.2722,0.276,0.2769,0.2778,0.2793,0.2793,0.2812,0.282,0.2833,0.2853,0.288,0.2897,0.2923,0.2971,0.2976,0.2992,0.2997,0.3002,0.3006,0.3032,0.304,0.2961,0.2961,0.2961,0,0,0.2702,0.2716,0.2732,0.2765,0.2778,0.2805,0.2784,0.2814,0.2834,0.2825,0.2863,0.2874,0.2896,0.294,0.2961,0.2951,0.3029,0.3006,0.3009,0.3012,0.3037,0.3044,0.3051,0.2963,0.2963,0.2962,0,0,0.2753,0.2766,0.2798,0.2812,0.2832,0.2837,0.2845,0.2864,0.287,0.2909,0.2902,0.2927,0.2973,0.2989,0.3003,0.3059,0.3054,0.3068,0.3095,0.312,0.3127,0.3132,0.3152,0.3159,0.3072,0.3072,0.3072,0,0.2776,0.2816,0.2816,0.2845,0.286,0.2851,0.2884,0.2898,0.2927,0.2937,0.2926,0.2983,0.2997,0.3045,0.3058,0.307,0.308,0.3065,0.3125,0.3131,0.3136,0.3155,0.3163,0.3074,0.3074,0.3073,0.3073,0,0.2843,0.287,0.2894,0.292,0.2938,0.2969,0.2975,0.2992,0.2991,0.2998,0.3037,0.3054,0.3082,0.3094,0.3093,0.3142,0.3135,0.3124,0.3104,0.3145,0.3163,0.3171,0.3076,0.3075,0.3075,0.3075,0,0,0.2909,0.2934,0.2942,0.2954,0.2975,0.2997,0.3028,0.3054,0.307,0.309,0.3116,0.3155,0.3145,0.3161,0.3162,0.3184,0.3227,0.3171,0.3171,0.3181,0.3282,0.329,0.3298,0.3223,0.3225,0.3226,0.328,0,0.2962,0.3015,0.3016,0.3065,0.3091,0.3082,0.3109,0.3126,0.3133,0.3156,0.3164,0.3191,0.3176,0.3186,0.3207,0.3217,0.3248,0.3213,0.3249,0.325,0.3244,0.3308,0.3316,0.3367,0.3287,0.3288,0.3289,0,0.3031,0.3051,0.3102,0.3119,0.313,0.3154,0.3178,0.32,0.3219,0.3223,0.324,0.3237,0.327,0.3248,0.3293,0.327,0.3284,0.3292,0.3294,0.3298,0.3273,0.3314,0.3383,0.3391,0.33,0.3299,0.3299,0,0.3074,0.3114,0.315,0.316,0.3181,0.3198,0.3208,0.3225,0.324,0.3262,0.3272,0.3298,0.3312,0.3332,0.3337,0.332,0.3382,0.336,0.3387,0.3387,0.3401,0.34,0.3474,0.341,0.3409,0.3409,0.3409,0,0.3133,0.3165,0.3169,0.3192,0.3227,0.3228,0.3263,0.3272,0.3287,0.3311,0.3306,0.3329,0.3333,0.3358,0.3362,0.3399,0.3405,0.341,0.3411,0.341,0.341,0.3421,0.3417,0.3411,0.3411,0.341,0.341,0,0.3188,0.3192,0.323,0.3246,0.3251,0.3276,0.329,0.3312,0.3318,0.3348,0.3356,0.3366,0.3394,0.34,0.3435,0.3437,0.3481,0.3478,0.3474,0.3474,0.35,0.3498,0.3584,0.3595,0.3523,0.3524,0.3525,0,0.3225,0.3249,0.3267,0.3282,0.3292,0.3317,0.3332,0.3334,0.335,0.3373,0.3392,0.3419,0.3441,0.3487,0.3498,0.3524,0.3522,0.355,0.3526,0.3525,0.3523,0.3521,0.3524,0.3555,0.3556,0.3557,0.3557,0,0.3292,0.3292,0.3314,0.3336,0.3354,0.3373,0.339,0.3403,0.3407,0.3426,0.3454,0.3471,0.3505,0.3532,0.3558,0.3569,0.3564,0.3564,0.3572,0.3572,0.3569,0.3571,0.3487,0.3563,0.3562,0.3562,0.3561,0.3561,0.3339,0.336,0.3375,0.3399,0.3412,0.3428,0.3449,0.3457,0.3479,0.3506,0.3506,0.3537,0.3555,0.3589,0.3601,0.3626,0.3618,0.3629,0.3631,0.3634,0.3636,0.3565,0.3631,0.3631,0.3631,0.3631,0.363,0,0.3405,0.3414,0.3436,0.346,0.3479,0.3471,0.3489,0.3506,0.3533,0.3549,0.357,0.3603,0.3629,0.3642,0.3668,0.3685,0.3684,0.3692,0.3691,0.3694,0.3643,0.3633,0.3693,0.3693,0.3693,0.3693,0.3693,0.3693,0.3442,0.3476,0.3478,0.3519,0.3528,0.3557,0.3568,0.3584,0.3596,0.3632,0.3653,0.3661,0.3676,0.3703,0.3727,0.373,0.374,0.375,0.3752,0.3704,0.3698,0.3692,0.3683,0.3752,0.3752,0.3802,0.3802,0.3802]},{"header":{"parameterUnit":"m.s-1","parameterCategory":1,"la1":30.2991,"la2":30.254,"lo1":-89.0895,"lo2":-89.0444,"dy":0.0017,"dx":0.0017,"nx":28,"ny":28,"refTime":"2025-04-26T09:00:00:Z","depth":0,"parameterNumber":3,"parameterNumberName":"V-component_of_WINDS"},"data":[0,0,0,0,0,0,0,0,0,0,0,0,0,0,0,0,0,0,0,0,0,0,0,0,0,0,0,0,0,0,0,0,0,0,0,0,0,0,0,0,0,0,0,0,0,0,0,0,0,0,0,0,0,0,0,0,0,0,-0.3278,-0.3279,0,-0.3316,-0.3317,-0.3317,-0.3342,-0.3342,-0.3342,-0.3342,-0.3384,-0.3385,-0.3386,0,0,0,0,0,0,0,0,0,0,0,0,0,-0.3231,-0.3232,-0.3278,-0.3279,-0.3279,-0.3316,-0.3317,-0.3317,-0.3342,-0.3342,-0.3342,-0.3343,-0.3384,-0.3385,-0.3386,0,0,0,0,0,0,0,0,0,0,0,0,0,-0.3259,-0.3232,-0.3278,-0.3296,-0.3298,-0.3316,-0.3317,-0.3317,-0.3342,-0.3342,-0.3342,-0.3343,-0.3384,-0.3385,-0.3387,-0.3391,0,0,-0.3391,-0.3392,0,0,0,0,0,0,0,0,-0.3257,-0.326,-0.3293,-0.3295,-0.3297,-0.3325,-0.3316,-0.3342,-0.3342,-0.3325,-0.3342,-0.3343,-0.3365,-0.3368,-0.3374,-0.3393,-0.3395,-0.3391,-0.3392,-0.3393,-0.3393,0,0,0,0,0,0,0,-0.3255,-0.3259,-0.3294,-0.3293,-0.3296,-0.3303,-0.3307,-0.3321,-0.3343,-0.3327,-0.3329,-0.3333,-0.3366,-0.3373,-0.3375,-0.3395,-0.3391,-0.3392,-0.3393,-0.3394,-0.3421,-0.3421,0,0,0,0,0,0,-0.325,-0.3257,-0.3292,-0.3295,-0.3277,-0.3304,-0.3309,-0.3316,-0.3343,-0.3348,-0.3332,-0.3334,-0.337,-0.3374,-0.3377,-0.3385,-0.3393,-0.3394,-0.3395,-0.3421,-0.3421,-0.3421,0,0,0,0,0,0,-0.3249,-0.3253,-0.3291,-0.3276,-0.3282,-0.3305,-0.3312,-0.3316,-0.3323,-0.3347,-0.3352,-0.3335,-0.3371,-0.3375,-0.3387,-0.3386,-0.3395,-0.3396,-0.3421,-0.3421,-0.3421,-0.3399,0,0,0,0,0,0,-0.3247,-0.3252,-0.3253,-0.3276,-0.3282,-0.3299,-0.3312,-0.3317,-0.3325,-0.3327,-0.3351,-0.3355,-0.3371,-0.3385,-0.3389,-0.3388,-0.3397,-0.3421,-0.3421,-0.3421,-0.34,-0.3398,-0.3396,0,0,0,0,0,-0.3246,-0.3246,-0.3253,-0.3257,-0.3284,-0.3299,-0.3303,-0.332,-0.3325,-0.3327,-0.3343,-0.3355,-0.3386,-0.3386,-0.3391,-0.3391,-0.3422,-0.3421,-0.3421,-0.3401,-0.3398,-0.3396,0,0,0,0,0,0,-0.3224,-0.325,-0.3258,-0.3265,-0.328,-0.3303,-0.3306,-0.3317,-0.3331,-0.3332,-0.3354,-0.3359,-0.3369,-0.3381,-0.3381,-0.3397,-0.3405,-0.3406,-0.3388,-0.3386,-0.3385,-0.3382,-0.3398,0,0,0,0,0,-0.3219,-0.3228,-0.3251,-0.3256,-0.3262,-0.3283,-0.329,-0.3302,-0.3318,-0.3325,-0.3341,-0.3357,-0.3371,-0.3379,-0.3393,-0.3402,-0.3408,-0.3404,-0.3403,-0.3401,-0.3401,-0.3408,-0.3407,-0.3419,-0.3419,-0.3419,0,0,-0.3211,-0.3227,-0.3231,-0.3252,-0.3264,-0.3274,-0.3288,-0.3298,-0.3306,-0.3327,-0.3339,-0.3352,-0.3371,-0.3382,-0.3388,-0.3393,-0.3399,-0.3401,-0.3399,-0.34,-0.3407,-0.3406,-0.3405,-0.3419,-0.3419,-0.3419,0,0,-0.3201,-0.3213,-0.3219,-0.3231,-0.3249,-0.3263,-0.3264,-0.3286,-0.3295,-0.3308,-0.3324,-0.3335,-0.3357,-0.3371,-0.3381,-0.3377,-0.3389,-0.3381,-0.3372,-0.3378,-0.3377,-0.3376,-0.3375,-0.3374,-0.3381,-0.3381,-0.3381,0,-0.3189,-0.3203,-0.3221,-0.3229,-0.3238,-0.3257,-0.3263,-0.3275,-0.3297,-0.3304,-0.3309,-0.3338,-0.3352,-0.3367,-0.3366,-0.3373,-0.3376,-0.3378,-0.3375,-0.3375,-0.3374,-0.3374,-0.3373,-0.338,-0.338,-0.338,-0.338,0,-0.3188,-0.3198,-0.32,-0.322,-0.323,-0.3237,-0.3257,-0.3264,-0.3276,-0.3289,-0.3303,-0.3321,-0.3339,-0.3343,-0.3355,-0.336,-0.3362,-0.3371,-0.338,-0.3372,-0.3371,-0.3371,-0.3378,-0.3379,-0.3379,-0.3379,0,0,-0.3164,-0.3194,-0.3195,-0.3204,-0.3226,-0.3235,-0.3244,-0.3261,-0.3267,-0.3283,-0.3291,-0.331,-0.3319,-0.333,-0.3343,-0.3349,-0.3345,-0.3357,-0.3358,-0.3354,-0.3353,-0.3346,-0.3345,-0.3353,-0.3353,-0.3353,-0.3351,0,-0.3158,-0.3174,-0.319,-0.32,-0.321,-0.3229,-0.3237,-0.3252,-0.3265,-0.3276,-0.3292,-0.3305,-0.3314,-0.3321,-0.3327,-0.3344,-0.3345,-0.3345,-0.3363,-0.3363,-0.3357,-0.3345,-0.3338,-0.3335,-0.3351,-0.3351,-0.3351,0,-0.3152,-0.3166,-0.3177,-0.3198,-0.3203,-0.321,-0.3227,-0.3237,-0.3256,-0.3265,-0.3277,-0.3292,-0.3304,-0.3311,-0.3329,-0.3328,-0.3337,-0.3346,-0.3346,-0.3349,-0.3356,-0.3347,-0.3334,-0.3334,-0.3351,-0.3351,-0.3351,0,-0.3135,-0.3156,-0.3165,-0.3173,-0.3198,-0.3203,-0.3214,-0.3232,-0.3241,-0.3257,-0.3263,-0.328,-0.3289,-0.3303,-0.3322,-0.3325,-0.3338,-0.3347,-0.3347,-0.3346,-0.3348,-0.3348,-0.3336,-0.3354,-0.3354,-0.3354,-0.3354,0,-0.3126,-0.3132,-0.3157,-0.3163,-0.3171,-0.3191,-0.3198,-0.3211,-0.3228,-0.3237,-0.3255,-0.3264,-0.3288,-0.33,-0.3316,-0.3328,-0.3332,-0.3341,-0.3345,-0.334,-0.3338,-0.3346,-0.3346,-0.3353,-0.3353,-0.3354,-0.3354,0,-0.3107,-0.3124,-0.3136,-0.3159,-0.3165,-0.317,-0.319,-0.3198,-0.3212,-0.3224,-0.3228,-0.3251,-0.3267,-0.3287,-0.3309,-0.3319,-0.333,-0.3336,-0.3324,-0.3326,-0.3325,-0.3325,-0.3318,-0.3318,-0.3334,-0.3334,-0.3334,0,-0.31,-0.3105,-0.3129,-0.3136,-0.3146,-0.3158,-0.3167,-0.3187,-0.3196,-0.3217,-0.3222,-0.3239,-0.3253,-0.3278,-0.3297,-0.3315,-0.3321,-0.3318,-0.3324,-0.3319,-0.3322,-0.3321,-0.3322,-0.3316,-0.3316,-0.3315,-0.3315,0,-0.3087,-0.3095,-0.3107,-0.3122,-0.3133,-0.3146,-0.316,-0.3165,-0.3188,-0.3198,-0.3214,-0.3225,-0.3247,-0.3264,-0.3284,-0.3297,-0.331,-0.3313,-0.3314,-0.3309,-0.3301,-0.3306,-0.3319,-0.3313,-0.3313,-0.3314,-0.3314,-0.3314,-0.3074,-0.308,-0.3097,-0.311,-0.3123,-0.3136,-0.3143,-0.3159,-0.3171,-0.319,-0.3202,-0.3217,-0.3236,-0.3264,-0.3277,-0.329,-0.3295,-0.3297,-0.3297,-0.3297,-0.3296,-0.3299,-0.3294,-0.3294,-0.3294,-0.3294,-0.3294,0,-0.3061,-0.3073,-0.3085,-0.3104,-0.3115,-0.3125,-0.3142,-0.3151,-0.3163,-0.318,-0.3193,-0.3212,-0.3228,-0.3249,-0.3267,-0.3274,-0.3281,-0.3278,-0.3278,-0.3281,-0.329,-0.3287,-0.3273,-0.3273,-0.3273,-0.3273,-0.3273,-0.3273,-0.3056,-0.3066,-0.3077,-0.3094,-0.3106,-0.312,-0.3129,-0.3142,-0.3155,-0.3174,-0.3187,-0.32,-0.3219,-0.3239,-0.3255,-0.3261,-0.3267,-0.3263,-0.3271,-0.3279,-0.328,-0.3282,-0.328,-0.3264,-0.3264,-0.3261,-0.3261,-0.3261]}]]